Flag for Kosovo

Past Weather in Ferizaj, Kosovo — Yesterday and Last 2 Weeks

Now
61 °F

More clouds than sun.


Feels Like: 61 °F
Forecast: 75 / 53 °F
Wind: 1 mph from Southeast

Location: Skopje-Petrovec
Current Time: Sep 24, 2020 at 7:36:56 am
Latest Report: Sep 24, 2020 at 7:00 am
Visibility: N/A
Pressure29.95 "Hg(27.96 "Hg at 582m altitude)
Humidity: 94%
Dew Point: 59 °F
Location of FerizajLocation

Past Weather in Ferizaj — Graph

°F

Ferizaj Temperature Yesterday

Maximum temperature yesterday: 77 °F (at 3:30 pm)
Minimum temperature yesterday: 54 °F (at 6:00 am)
Average temperature yesterday: 65 °F

High & Low Weather Summary for the Past Weeks

 TemperatureHumidityPressure
High90 °F (Sep 10, 3:00 pm)94% (Sep 9, 6:00 am)30.30 "Hg (Sep 9, 6:00 am)
Low50 °F (Sep 21, 6:00 am)25% (Sep 14, 4:30 pm)29.89 "Hg (Sep 11, 4:00 pm)
Average70 °F62%30.07 "Hg
* Reported Sep 9 6:00 am — Sep 24 6:30 am, Ferizaj. Weather by CustomWeather, © 2020

Note: Actual official high and low records may vary slightly from our data, if they occured in-between our weather recording intervals... More about our weather records

Ferizaj Weather History for the Previous 24 Hours

Scroll right to see more
 ConditionsComfort  
Time TempWeatherWind HumidityBarometerVisibility
6:30 am
Thu, Sep 24
61 °FMore clouds than sun.1 mph94%29.95 "HgN/A
6:00 am61 °FMostly cloudy.1 mph94%29.92 "HgN/A
5:30 am61 °FLight rain. Partly cloudy.1 mph94%29.92 "HgN/A
5:00 am61 °FLight rain. Partly cloudy.2 mph94%29.92 "HgN/A
4:00 am61 °FPartly cloudy.5 mph88%29.95 "HgN/A
3:00 am59 °FClear.2 mph94%29.95 "Hg10 mi
2:30 am61 °FClear.5 mph88%29.92 "Hg10 mi
2:00 am61 °FClear.2 mph88%29.92 "Hg10 mi
1:30 am59 °FClear.3 mph94%29.95 "Hg10 mi
12:30 am63 °FClear.3 mph83%29.95 "Hg10 mi
12:00 am63 °FClear.3 mph83%29.95 "Hg10 mi
11:30 pm
Wed, Sep 23
63 °FClear.2 mph83%29.95 "Hg10 mi
11:00 pm64 °FClear.7 mph83%29.95 "Hg10 mi
10:30 pm64 °FPassing clouds.5 mph83%29.95 "HgN/A
10:00 pm64 °FPassing clouds.2 mph83%29.95 "HgN/A
9:30 pm66 °FPassing clouds.2 mph78%29.95 "HgN/A
9:00 pm68 °FPassing clouds.6 mph73%29.95 "HgN/A
8:30 pm68 °FPassing clouds.6 mph73%29.95 "HgN/A
7:30 pm72 °FPassing clouds.3 mph69%29.92 "HgN/A
7:00 pm72 °FPassing clouds.2 mph73%29.92 "HgN/A
6:30 pm72 °FPassing clouds.2 mph73%29.92 "HgN/A
6:00 pm75 °FPassing clouds.2 mph65%29.92 "HgN/A
5:30 pm77 °FPassing clouds.No wind61%29.89 "HgN/A
5:00 pm75 °FScattered clouds.No wind65%29.92 "HgN/A
4:30 pm75 °FPassing clouds.No wind65%29.92 "HgN/A
4:00 pm77 °FPassing clouds.No wind57%29.92 "HgN/A
3:30 pm77 °FPassing clouds.3 mph61%29.92 "HgN/A
3:00 pm75 °FPassing clouds.5 mph65%29.95 "HgN/A
2:30 pm73 °FPassing clouds.2 mph69%29.95 "HgN/A
2:00 pm73 °FPassing clouds.3 mph69%29.98 "HgN/A
1:30 pm73 °FPassing clouds.2 mph65%29.98 "HgN/A
1:00 pm72 °FPassing clouds.6 mph69%30.01 "HgN/A
12:30 pm72 °FPassing clouds.2 mph73%30.01 "HgN/A
12:00 pm70 °FPassing clouds.2 mph78%30.04 "HgN/A
11:30 am68 °FScattered clouds.3 mph78%30.04 "HgN/A
11:00 am68 °FScattered clouds.No wind78%30.04 "HgN/A
10:30 am66 °FScattered clouds.No wind83%30.04 "HgN/A
10:00 am64 °FScattered clouds.No wind83%30.04 "HgN/A
9:30 am63 °FScattered clouds.2 mph88%30.04 "HgN/A
9:00 am63 °FLight rain. Partly sunny.2 mph88%30.04 "HgN/A
8:00 am59 °FBroken clouds.2 mph88%30.07 "HgN/A
7:30 am57 °FBroken clouds.No wind94%30.07 "HgN/A
7:00 am55 °FBroken clouds.1 mph94%30.07 "HgN/A
Weather by CustomWeather, © 2020

See weather overview